Location: Artiguedieu
(43.5000°N, 0.5454°E)
Time: 01:32:47
(UTC+00:00)

Transit 2A Rocket - Pass Details

Date: 01 August 2021
Orbit: 586 x 916 km, 66.7° (Epoch: 16 September)

Event Time Altitude Azimuth Distance (km) Brightness Sun altitude
Rises 22:28:52 0° 329° (NNW) 3,271 9.6 -24.9°
Reaches altitude 10° 22:31:12 10° 331° (NNW) 2,388 8.6 -25.1°
Maximum altitude 22:36:46 76° 58° (ENE) 882 5.2 -25.5°
Enters shadow 22:37:34 65° 116° (ESE) 944 5.2 -25.6°
Drops below altitude 10° 22:42:43 10° 144° (SE) 2,555 - -25.9°
Sets 22:45:17 0° 146° (SE) 3,515 - -26.1°
